Regional Weather Roundup
Issued by NWS

Home | Current Version | Previous Version | Graphics & Text | Print | Product List | Glossary On
Versions: 1 2 3 4 5 6 7 8 9 10 11 12 13 14 15 16 17 18 19 20 21 22 23 24 25 26 27 28 29 30 31 32 33 34 35 36 37 38 39 40 41 42 43 44 45 46 47 48 49 50
000
ASUS45 KSLC 011910
RWRUT

UTAH REGIONAL WEATHER ROUNDUP
NATIONAL WEATHER SERVICE SALT LAKE CITY UT
100 PM MDT MON JUN 01 2015

UTZ001>011-023>025-012000-

NORTHERN UTAH

CITY           SKY/WX    TMP DP  RH WIND       PRES   REMARKS
BRIGHAM CITY   SUNNY     84  40  20 S22G28    29.88S
HILL AFB       NOT AVBL
LOGAN          SUNNY     81  50  33 SW9G18    29.89F
OGDEN          SUNNY     85  38  18 S12       29.89S
PROVO AIRPORT  MOSUNNY   84  45  24 SW12      29.93F
SALT LAKE CITY PTSUNNY   86  31  13 S18G37    29.87F
VERNAL         MOSUNNY   80  44  27 SE7       30.02F
WENDOVER       SUNNY     86  37  17 SE9       29.84F
HEBER CITY     MOSUNNY   81  32  17 W15G25    29.98F
WEST JORDAN    SUNNY     84  36  17 S17G31    29.91F

$$

UTZ012>022-026-027-012000-

SOUTHERN/CENTRAL UTAH

CITY           SKY/WX    TMP DP  RH WIND       PRES   REMARKS
BLANDING       SUNNY     83  33  16 S12G24    30.21F
BRYCE CANYON   SUNNY     73  25  16 S21G26    30.21F
CEDAR CITY     SUNNY     81  28  14 S20G30    30.04S
DELTA          SUNNY     87  26  11 SW25G35   29.95S
HANKSVILLE     SUNNY     90  28  11 SW15G33   29.99S
MILFORD        SUNNY     84  31  14 S23G36    29.97F
MOAB/CYNLANDS  SUNNY     93  27   9 SW28G33   29.95F
PRICE          SUNNY     85  37  18 S16G22    30.05F
ST GEORGE      PTCLDY    93  34  12 S16G31    29.91F

$$

REGIONAL REPORTS     COLORADO/ARIZONA

CITY           SKY/WX    TMP DP  RH WIND       PRES   REMARKS
CRAIG, CO      MOSUNNY   81  44  27 SW16      30.08F
GRAND JUNCTION SUNNY     86  37  17 CALM      29.99F
RIFLE          MOSUNNY   80  43  26 W7        30.06F
MONTROSE       PTSUNNY   83  37  19 W13       30.11F
CORTEZ         MOSUNNY   85  36  17 S14G22    30.16F
PAGE, AZ       SUNNY     91  20   7 S13G26    29.98F
GRAND CANYON   SUNNY     78  20  11 SW20G30   30.21F
KINGMAN        SUNNY     91  24   9 SW26G35   30.00R
FLAGSTAFF      SUNNY     74  21  13 SW23      30.26R

$$

REGIONAL REPORTS    NEVADA/IDAHO/WYOMING

CITY           SKY/WX    TMP DP  RH WIND       PRES   REMARKS
LAS VEGAS, NV  MOSUNNY   93  23   8 SW23G31   29.83F
ELY            SUNNY     78  38  23 S22G32    30.00F
ELKO           MOSUNNY   76  40  27 MISG      29.95F
POCATELLO, ID  MOSUNNY   77  51  40 SW16      29.91R
BURLEY         SUNNY     75  51  43 W9G21     29.91S
EVANSTON, WY   MOSUNNY   74  33  22 S23G31    30.08F
ROCK SPRINGS   PTSUNNY   75  36  24 S15       30.08F
KEMMERER       MOSUNNY   75  30  19 S14G31    30.10F

$$



USA.gov is the U.S. government's official web portal to all federal, state and local government web resources and services.